MB7UEL Weather Reports


Display with metric or nautical units.
time (UTC)temp
F
wind
direction
speed
MPH
gust
MPH
rain 1hr
in
rain 24hr
in
rain mn
in
humidity
%
barometer
mb
20260902193505 61 112 9.0 11.0 0.00 0.03 0.00 1010.0
20260902190505 61 112 9.0 11.0 0.00 0.03 0.00 1010.0
20260902183505 61 119 8.0 10.0 0.00 0.03 0.00 1011.0
20260902180505 60 108 9.0 12.0 0.00 0.03 0.00 1011.0
20260902173506 61 131 7.0 8.0 0.00 0.03 0.00 1011.0
20260902170506 61 131 7.0 8.0 0.00 0.03 0.00 1011.0
20260902163506 61 155 6.0 8.0 0.00 0.03 0.00 1012.0
20260902160506 61 155 6.0 8.0 0.00 0.03 0.00 1012.0
20260902153506 61 155 6.0 8.0 0.00 0.03 0.00 1012.0
20260902150506 61 132 6.0 7.0 0.00 0.03 0.00 1013.0
20260902143506 61 132 6.0 7.0 0.00 0.03 0.00 1013.0
20260902140506 60 110 8.0 10.0 0.00 0.03 0.00 1013.0
20260902133505 60 110 8.0 10.0 0.00 0.03 0.00 1013.0
20260902130505 59 101 11.0 14.0 0.00 0.03 0.00 1014.0
20260902123505 59 101 11.0 14.0 0.00 0.03 0.00 1014.0
20260902120505 57 85 12.0 17.0 0.00 0.03 0.00 1015.0
20260902113505 57 84 12.0 17.0 0.00 0.03 0.00 1015.0
20260902110505 57 84 10.0 14.0 0.00 0.03 0.00 1015.0
20260902103505 57 84 10.0 14.0 0.00 0.03 0.00 1015.0
20260902100505 57 88 7.0 10.0 0.00 0.03 0.00 1015.0
20260902093506 57 88 7.0 10.0 0.00 0.03 0.00 1015.0
20260902090506 57 89 4.0 6.0 0.00 0.03 0.00 1015.0
20260902083506 57 89 4.0 6.0 0.00 0.00 0.00 1016.0
20260902080506 56 113 2.0 4.0 0.00 0.00 0.00 1015.0
20260902073506 56 113 2.0 4.0 0.00 0.00 0.00 1015.0
20260902070506 56 212 1.0 3.0 0.00 0.00 0.00 1015.0
20260902063506 56 212 1.0 3.0 0.00 0.00 0.00 1016.0
20260902060506 56 254 3.0 5.0 0.00 0.00 0.00 1015.0
20260902053505 56 282 3.0 6.0 0.00 0.00 0.00 1015.0
20260902050506 56 268 6.0 9.0 0.00 0.00 0.00 1015.0
20260902043505 56 268 6.0 9.0 0.00 0.00 0.00 1015.0
20260902040505 57 267 7.0 11.0 0.00 0.00 0.00 1015.0
20260902033505 57 267 7.0 11.0 0.00 0.00 0.00 1015.0
20260902030505 57 267 9.0 13.0 0.00 0.00 0.00 1015.0
20260902023505 57 267 9.0 13.0 0.00 0.00 0.00 1015.0
20260902020505 57 268 12.0 16.0 0.00 0.00 0.00 1015.0
20260902013505 57 268 12.0 16.0 0.00 0.00 0.00 1015.0
20260902010505 58 270 12.0 15.0 0.00 0.00 0.00 1015.0
20260902003506 58 270 12.0 15.0 0.00 0.00 0.00 1015.0
20260902000506 58 268 13.0 17.0 0.00 0.00 0.00 1016.0
20260901233506 57 268 13.0 17.0 0.00 0.00 0.00 1016.0
20260901230506 58 265 14.0 19.0 0.00 0.00 0.00 1015.0
20260901223506 58 265 14.0 19.0 0.00 0.00 0.00 1015.0
20260901220506 59 263 16.0 21.0 0.00 0.00 0.00 1015.0
20260901213506 59 263 16.0 21.0 0.00 0.00 0.00 1015.0
20260901210506 59 257 17.0 22.0 0.00 0.00 0.00 1015.0
20260901203505 59 257 17.0 22.0 0.00 0.00 0.00 1015.0
20260901200505 60 252 17.0 22.0 0.00 0.00 0.00 1014.0